Station MGIP4 - 9759110 - Magueyes Islands, PR Image indicating link to RSS feed of recent meteorological observations for station MGIP4


Conditions at MGIP4 as of
(1:54 am AST)
0554 GMT on 06/21/2024:
     

Click on the graph icon in the table below to see a time series plot of the last five days of that observation.

5-day plot - Wind Direction Wind Direction (WDIR):NNE ( 20 deg true )
5-day plot - Wind Speed Wind Speed (WSPD): 1.9 kts
5-day plot - Wind Gust Wind Gust (GST): 4.1 kts
5-day plot - Atmospheric Pressure Atmospheric Pressure (PRES):29.96 in
5-day plot - Air Temperature Air Temperature (ATMP): 80.1 °F
5-day plot - Wind Speed at 10 Meters Wind Speed at 10 meters (WSPD10M): 1.9 kts
5-day plot - Wind Speed at 20 Meters Wind Speed at 20 meters (WSPD20M): 1.9 kts
5-day plot -  Wind Speed, Wind Gust and Atmospheric Pressure Combined plot of Wind Speed, Gust, and Air Pressure
NOS Water Level Observation Network Water Level
Previous observations
TIME
(AST)
5-day plot - Wind Direction
WDIR
 
5-day plot - Wind Speed
WSPD
kts
5-day plot - Wind Gust
GST
kts
5-day plot - Wave Height
WVHT
ft
5-day plot - Dominant Wave Period
DPD
sec
5-day plot - Average Wave Period
APD
sec
5-day plot - Mean Wave Direction
MWD
 
5-day plot - Atmospheric Pressure
PRES
in
5-day plot - Pressure Tendency
PTDY
in
5-day plot - Air Temperature
ATMP
°F
5-day plot - Water Temperature
WTMP
°F
5-day plot - Dew Point
DEWP
°F
5-day plot - Salinity
SAL
psu
5-day plot - Visibility
VIS
nmi
5-day plot - Tide (above MLLW)
TIDE
ft
2024-06-21 01:48 am- 0.0 2.9----29.96- 80.1-----
2024-06-21 01:42 am NE 1.0 2.9----29.96- 80.1-----
2024-06-21 01:36 amNNE 1.9 4.1----29.96- 80.1-----
2024-06-21 01:30 am- 0.0 1.9----29.96- 80.1-----
2024-06-21 01:24 am- 0.0 2.9----29.97- 80.1-----
2024-06-21 01:18 am N 1.0 2.9----29.97- 79.7-----
2024-06-21 01:12 am N 1.9 4.1----29.97- 79.7-----
2024-06-21 01:06 amNNE 1.0 2.9----29.97- 79.5-----
2024-06-21 01:00 am N 1.9 2.9----29.97-0.03 79.5-----
2024-06-21 12:54 am N 1.9 2.9----29.98- 79.3-----
2024-06-21 12:48 am N 1.9 2.9----29.98- 79.7-----
2024-06-21 12:42 am N 1.9 2.9----29.98- 80.2-----
2024-06-21 12:36 am- 0.0 2.9----29.98- 80.2-----
2024-06-21 12:30 am- 0.0 2.9----29.98- 80.4-----
2024-06-21 12:24 am- 0.0 4.1----29.98- 80.6-----
2024-06-21 12:18 am NE 1.9 2.9----29.98- 80.6-----
2024-06-21 12:12 am- 0.0 2.9----29.98- 80.8-----
2024-06-21 12:06 am- 0.0 2.9----29.98- 81.0-----
2024-06-21 12:00 am- 0.0 1.9----29.98-0.01 81.0-----
2024-06-20 11:54 pm E 1.0 4.1----29.99- 81.0-----
2024-06-20 11:48 pm- 0.0 1.0----29.99- 81.0-----
2024-06-20 11:42 pm NE 1.0 2.9----29.99- 81.0-----
2024-06-20 11:36 pm- 0.0 1.9----29.99- 81.1-----
2024-06-20 11:30 pm- 0.0 4.1----29.99- 81.1-----
2024-06-20 11:24 pm NE 1.0 2.9----29.99- 81.1-----
2024-06-20 11:18 pm- 0.0 2.9----29.99- 81.1-----
2024-06-20 11:12 pm- 0.0 2.9----29.99- 81.3-----
2024-06-20 11:06 pm- 0.0 2.9----30.00- 81.3-----
2024-06-20 11:00 pm- 0.0 1.9----30.00+0.00 81.1-----
2024-06-20 10:54 pm- 0.0 2.9----30.00- 81.3-----
2024-06-20 10:48 pm- 0.0 1.0----29.99- 81.3-----
2024-06-20 10:42 pmNNE 1.0 1.9----30.00- 81.3-----
2024-06-20 10:36 pmNNE 1.0 4.1----30.00- 81.1-----
2024-06-20 10:30 pm- 0.0 2.9----30.00- 81.3-----
2024-06-20 10:24 pm NE 1.0 2.9----30.00- 81.5-----
2024-06-20 10:18 pm NE 1.0 1.9----30.00- 81.5-----
2024-06-20 10:12 pmNNE 1.0 2.9----30.00- 81.7-----
2024-06-20 10:06 pmNNE 1.9 4.1----30.00- 81.7-----
2024-06-20 10:00 pmNNE 1.9 5.1----30.00+0.02 81.7-----
2024-06-20 09:54 pm N 1.9 4.1----30.00- 81.9-----
2024-06-20 09:48 pmNNE 1.0 2.9----30.00- 81.9-----
2024-06-20 09:42 pmNNE 1.9 4.1----30.00- 81.9-----
2024-06-20 09:36 pm- 0.0 2.9----30.00- 81.7-----
2024-06-20 09:30 pm- 0.0 2.9----30.00- 81.9-----
2024-06-20 09:24 pm- 0.0 2.9----30.00- 81.7-----
2024-06-20 09:18 pm- 0.0 1.9----30.00- 81.7-----
2024-06-20 09:12 pm- 0.0 1.9----29.99- 81.5-----
2024-06-20 09:06 pm- 0.0 0.0----29.99- 81.5-----
2024-06-20 09:00 pm- 0.0 1.9----29.99+0.03 81.1-----
2024-06-20 08:54 pm N 2.9 4.1----29.99- 81.3-----
2024-06-20 08:48 pm N 2.9 5.1----29.99- 81.5-----
2024-06-20 08:42 pm N 2.9 5.1----29.99- 81.9-----
2024-06-20 08:36 pm N 1.9 4.1----29.99- 82.0-----
2024-06-20 08:30 pm N 2.9 5.1----30.00- 82.0-----
2024-06-20 08:24 pm N 2.9 4.1----29.99- 82.2-----
2024-06-20 08:18 pm N 1.9 2.9----29.99- 82.2-----
2024-06-20 08:12 pm N 2.9 2.9----29.99- 82.0-----
2024-06-20 08:06 pm N 1.9 4.1----29.99- 82.0-----
2024-06-20 08:00 pm N 1.9 4.1----29.99+0.03 82.2-----
2024-06-20 07:54 pm N 2.9 4.1----29.99- 82.2-----
2024-06-20 07:48 pm N 2.9 5.1----29.98- 82.2-----
2024-06-20 07:42 pm N 4.1 5.1----29.98- 82.6-----
2024-06-20 07:36 pm N 2.9 5.1----29.98- 83.1-----
2024-06-20 07:30 pm N 2.9 5.1----29.98- 83.5-----
2024-06-20 07:24 pm N 4.1 5.1----29.98- 83.1-----
2024-06-20 07:18 pmNNE 2.9 5.1----29.98- 83.3-----
2024-06-20 07:12 pmNNE 2.9 5.1----29.98- 83.5-----
2024-06-20 07:06 pm N 2.9 4.1----29.98- 83.7-----
2024-06-20 07:00 pmNNE 1.9 5.1----29.98+0.00 84.0-----
2024-06-20 06:54 pm N 5.1 6.0----29.98- 84.2-----
2024-06-20 06:48 pm N 5.1 6.0----29.98- 84.4-----
2024-06-20 06:42 pmNNE 2.9 5.1----29.97- 84.7-----
2024-06-20 06:36 pm N 2.9 5.1----29.97- 84.7-----
2024-06-20 06:30 pmNNE 4.1 5.1----29.97-------
2024-06-20 06:24 pmNNE 2.9 5.1----29.96-------
2024-06-20 06:18 pmNNE 2.9 5.1----29.96-------
2024-06-20 06:12 pmNNE 2.9 5.1----29.96-------
2024-06-20 06:06 pmNNE 1.9 5.1----29.96-------
2024-06-20 06:00 pmNNE 2.9 5.1----29.96-0.01 85.6-----
2024-06-20 05:54 pm NE 2.9 5.1----29.96- 86.0-----
2024-06-20 05:48 pmNNE 4.1 6.0----29.96- 85.6-----
2024-06-20 05:42 pmNNE 1.9 4.1----29.96- 85.6-----
2024-06-20 05:36 pmNNE 2.9 5.1----29.96- 85.6-----
2024-06-20 05:30 pmNNE 4.1 7.0----29.96- 85.5-----
2024-06-20 05:24 pm N 4.1 7.0----29.97- 85.5-----
2024-06-20 05:18 pmNNE 4.1 8.0----29.97- 85.6-----
2024-06-20 05:12 pmNNE 4.1 7.0----29.97- 86.0-----
2024-06-20 05:06 pmNNE 2.9 6.0----29.97- 86.2-----
2024-06-20 05:00 pmNNE 4.1 8.0----29.96-0.02 86.4-----
2024-06-20 04:54 pm NE 1.9 7.0----29.97- 86.5-----
2024-06-20 04:48 pm E 5.1 9.9----29.97- 86.7-----
2024-06-20 04:42 pm E 5.1 11.1----29.97- 86.9-----
2024-06-20 04:36 pm E 8.0 11.1----29.97- 87.4-----
2024-06-20 04:30 pmENE 2.9 5.1----29.96- 87.8-----
2024-06-20 04:24 pmENE 2.9 5.1----29.96- 86.7-----
2024-06-20 04:18 pm NE 1.9 6.0----29.96- 86.4-----
2024-06-20 04:12 pmENE 4.1 8.0----29.97- 86.4-----
2024-06-20 04:06 pmENE 4.1 7.0----29.97- 86.4-----
2024-06-20 04:00 pmNNE 2.9 9.9----29.97-0.03 86.0-----
2024-06-20 03:54 pmNNE 5.1 11.1----29.97- 85.8-----
2024-06-20 03:48 pm NE 6.0 11.1----29.97- 86.2-----
2024-06-20 03:42 pmENE 7.0 13.0----29.98- 87.1-----
2024-06-20 03:36 pm SE 5.1 13.0----29.98- 87.3-----
2024-06-20 03:30 pmESE 7.0 14.0----29.98-------
2024-06-20 03:24 pm E 6.0 13.0----29.98-------
2024-06-20 03:18 pm E 5.1 12.0----29.97- 88.3-----
2024-06-20 03:12 pmESE 6.0 11.1----29.97- 87.6-----
2024-06-20 03:06 pm SE 6.0 14.0----29.97- 87.4-----
2024-06-20 03:00 pm SE 6.0 13.0----29.97-0.04 88.2-----
2024-06-20 02:54 pm SE 8.0 13.0----29.98- 88.0-----
2024-06-20 02:48 pm SE 7.0 12.0----29.98- 88.7-----
2024-06-20 02:42 pm SE 6.0 15.0----29.98- 89.1-----
2024-06-20 02:36 pm SE 8.9 13.0----29.98- 88.7-----
2024-06-20 02:30 pm SE 8.0 12.0----29.98- 88.9-----
2024-06-20 02:24 pm SE 9.9 15.9----29.98- 88.0-----
2024-06-20 02:18 pm SE 8.9 15.0----29.98- 88.3-----
2024-06-20 02:12 pm SE 9.9 15.0----29.98- 88.3-----
2024-06-20 02:06 pm SE 8.0 11.1----29.98- 88.3-----
2024-06-20 02:00 pm SE 7.0 14.0----29.98-0.02 88.2-----
2024-06-20 01:54 pm SE 8.0 15.0----29.99- 87.8-----
2024-06-20 01:48 pm SE 9.9 14.0----29.99- 88.0-----
2024-06-20 01:42 pm SE 8.0 13.0----29.99- 88.5-----
2024-06-20 01:36 pm SE 5.1 9.9----29.99- 89.2-----
2024-06-20 01:30 pm E 7.0 13.0----30.00- 88.0-----
2024-06-20 01:24 pm SE 2.9 8.9----30.00- 90.1-----
2024-06-20 01:18 pmESE 4.1 12.0----30.00- 89.6-----
2024-06-20 01:12 pmESE 6.0 13.0----30.00- 89.4-----
2024-06-20 01:06 pmESE 2.9 9.9----30.00- 89.6-----
2024-06-20 01:00 pmESE 2.9 11.1----30.00+0.00 89.4-----
2024-06-20 12:54 pmESE 2.9 8.0----30.00- 88.9-----
2024-06-20 12:48 pm E 5.1 11.1----30.00- 88.0-----
2024-06-20 12:42 pmESE 5.1 13.0----30.00- 87.6-----
2024-06-20 12:36 pmESE 5.1 9.9----30.00- 87.8-----
2024-06-20 12:30 pmESE 5.1 11.1----30.00- 88.0-----
2024-06-20 12:24 pmESE 5.1 12.0----30.00- 88.3-----
2024-06-20 12:18 pmESE 4.1 11.1----30.01- 88.5-----
2024-06-20 12:12 pmESE 5.1 12.0----30.01- 88.9-----
2024-06-20 12:06 pmESE 2.9 8.9----30.01- 88.3-----
2024-06-20 12:00 pmESE 2.9 12.0----30.01+0.02 88.3-----
2024-06-20 11:54 am E 5.1 8.9----30.01- 88.2-----
2024-06-20 11:48 amESE 4.1 13.0----30.01- 88.2-----
2024-06-20 11:42 amESE 4.1 14.0----30.01- 88.3-----
2024-06-20 11:36 amESE 7.0 12.0----30.01- 88.2-----
2024-06-20 11:30 amESE 2.9 12.0----30.01- 89.1-----
2024-06-20 11:24 amESE 4.1 8.9----30.01- 88.9-----
2024-06-20 11:18 am SE 5.1 11.1----30.01- 88.7-----
2024-06-20 11:12 am SE 7.0 11.1----30.01- 89.2-----
2024-06-20 11:06 amESE 6.0 11.1----30.01- 89.1-----
2024-06-20 11:00 amESE 6.0 15.0----30.01+0.04 89.1-----
2024-06-20 10:54 amESE 2.9 8.0----30.01- 89.1-----
2024-06-20 10:48 am E 6.0 12.0----30.01- 88.2-----
2024-06-20 10:42 am E 6.0 12.0----30.01- 87.8-----
2024-06-20 10:36 amESE 5.1 9.9----30.01- 88.7-----
2024-06-20 10:30 am E 6.0 13.0----30.01- 89.2-----
2024-06-20 10:24 am E 5.1 13.0----30.01- 89.4-----
2024-06-20 10:18 amESE 5.1 13.0----30.01- 89.4-----
2024-06-20 10:12 am E 5.1 11.1----30.01- 89.1-----
2024-06-20 10:06 am E 4.1 12.0----30.01- 88.7-----
2024-06-20 10:00 am E 7.0 14.0----30.01+0.05 88.3-----
2024-06-20 09:54 am E 7.0 15.0----30.01- 89.1-----
2024-06-20 09:48 am E 5.1 13.0----30.00- 89.1-----
2024-06-20 09:42 amESE 5.1 12.0----30.00- 88.9-----
2024-06-20 09:36 amESE 6.0 12.0----30.00- 88.9-----
2024-06-20 09:30 amESE 5.1 11.1----30.00- 88.0-----
2024-06-20 09:24 amESE 6.0 11.1----29.99- 88.2-----
2024-06-20 09:18 am E 4.1 12.0----29.99- 87.8-----
2024-06-20 09:12 am E 4.1 9.9----29.99- 88.0-----
2024-06-20 09:06 am E 4.1 9.9----29.99- 87.8-----
2024-06-20 09:00 am E 4.1 8.9----29.99+0.05 87.3-----
2024-06-20 08:54 am E 5.1 8.9----29.99- 86.5-----
2024-06-20 08:48 am E 6.0 8.9----29.98- 86.2-----
2024-06-20 08:42 am E 5.1 9.9----29.98- 86.4-----
2024-06-20 08:36 am E 5.1 8.9----29.98- 86.7-----
2024-06-20 08:30 am E 4.1 8.9----29.98- 86.5-----
2024-06-20 08:24 am E 4.1 9.9----29.97- 86.2-----
2024-06-20 08:18 amENE 5.1 9.9----29.97- 86.4-----
2024-06-20 08:12 amENE 5.1 8.9----29.97- 86.4-----
2024-06-20 08:06 amENE 4.1 8.9----29.97- 86.2-----
2024-06-20 08:00 amENE 5.1 9.9----29.97+0.04 85.5-----
2024-06-20 07:54 amENE 5.1 8.0----29.97- 84.7-----
2024-06-20 07:48 amENE 5.1 8.9----29.97- 84.9-----
2024-06-20 07:42 amENE 4.1 6.0----29.97- 84.6-----
2024-06-20 07:36 am NE 1.0 6.0----29.97- 84.4-----
2024-06-20 07:30 am NE 2.9 6.0----29.96- 83.5-----
2024-06-20 07:24 am NE 1.9 5.1----29.96- 83.3-----
2024-06-20 07:18 amENE 2.9 5.1----29.96- 82.9-----
2024-06-20 07:12 am NE 1.9 4.1----29.96- 82.8-----
2024-06-20 07:06 am- 0.0 5.1----29.96- 82.6-----
2024-06-20 07:00 amNNE 1.0 4.1----29.95+0.03 82.4-----
2024-06-20 06:54 amENE 1.0 4.1----29.95- 82.4-----
2024-06-20 06:48 am E 1.9 8.0----29.95- 82.6-----
2024-06-20 06:42 amENE 2.9 8.0----29.95- 82.8-----
2024-06-20 06:36 am E 4.1 8.9----29.95- 82.6-----
2024-06-20 06:30 amENE 4.1 7.0----29.95- 82.4-----
2024-06-20 06:24 am E 2.9 6.0----29.95- 82.4-----
2024-06-20 06:18 am E 2.9 6.0----29.95- 82.4-----
2024-06-20 06:12 am E 1.9 5.1----29.94- 82.0-----
2024-06-20 06:06 amENE 1.9 5.1----29.94- 81.9-----
2024-06-20 06:00 amENE 1.9 7.0----29.94+0.02 82.0-----
2024-06-20 05:54 amENE 1.9 5.1----29.94- 81.9-----
2024-06-20 05:48 amENE 2.9 5.1----29.93- 81.9-----
2024-06-20 05:42 amENE 1.9 5.1----29.93- 81.9-----
2024-06-20 05:36 amENE 2.9 5.1----29.93- 81.9-----
2024-06-20 05:30 amENE 1.9 4.1----29.93- 81.9-----
2024-06-20 05:24 am NE 1.0 5.1----29.93- 81.9-----
2024-06-20 05:18 am NE 1.9 5.1----29.93- 82.0-----
2024-06-20 05:12 amENE 1.9 4.1----29.93- 81.9-----
2024-06-20 05:06 amENE 2.9 5.1----29.93- 81.9-----
2024-06-20 05:00 amENE 1.9 4.1----29.93+0.00 81.9-----
2024-06-20 04:54 am NE 1.0 4.1----29.93- 81.9-----
2024-06-20 04:48 amENE 1.0 5.1----29.93- 81.9-----
2024-06-20 04:42 amENE 1.9 5.1----29.93- 82.2-----
2024-06-20 04:36 am E 1.9 5.1----29.93- 82.2-----
2024-06-20 04:30 amENE 4.1 7.0----29.93- 82.2-----
2024-06-20 04:24 amENE 1.9 5.1----29.93- 82.2-----
2024-06-20 04:18 am E 1.9 6.0----29.92- 82.2-----
2024-06-20 04:12 amENE 1.0 4.1----29.92- 82.2-----
2024-06-20 04:06 amENE 1.9 6.0----29.92- 82.6-----
2024-06-20 04:00 am E 2.9 8.0----29.92-0.04 82.8-----
2024-06-20 03:54 amENE 2.9 5.1----29.92- 82.8-----
2024-06-20 03:48 amENE 4.1 8.9----29.92- 82.8-----
2024-06-20 03:42 am NE 2.9 7.0----29.92- 82.9-----
2024-06-20 03:36 am NE 2.9 7.0----29.92- 83.1-----
2024-06-20 03:30 amENE 5.1 7.0----29.92- 83.1-----
2024-06-20 03:24 am E 2.9 6.0----29.92- 83.1-----
2024-06-20 03:18 am E 2.9 6.0----29.92- 83.1-----
2024-06-20 03:12 amENE 2.9 6.0----29.92- 82.8-----
2024-06-20 03:06 am E 2.9 6.0----29.92- 82.8-----
2024-06-20 03:00 am E 2.9 7.0----29.92-0.06 82.8-----
2024-06-20 02:54 am NE 1.9 7.0----29.92- 82.8-----
2024-06-20 02:48 am E 1.9 8.0----29.92- 82.6-----
2024-06-20 02:42 am NE 1.0 5.1----29.92- 82.4-----
2024-06-20 02:36 amENE 1.0 5.1----29.92- 82.2-----
2024-06-20 02:30 amENE 1.0 5.1----29.92- 82.4-----
2024-06-20 02:24 am E 4.1 7.0----29.93- 82.4-----
2024-06-20 02:18 amENE 1.9 8.0----29.92- 82.6-----
2024-06-20 02:12 amENE 4.1 6.0----29.93- 82.6-----
2024-06-20 02:06 amENE 4.1 8.0----29.93- 82.8-----
2024-06-20 02:00 amENE 1.9 5.1----29.93-0.04 82.8-----
2024-06-20 01:54 am E 2.9 5.1----29.93- 82.8-----